Showing default

COSMOS 2386, 27057

Orbit data source: Space-Track

COSMOS 2386, 27057 is a payload satellite owned by KVR (CIS) in LEO that was launched on Fri, 28 Dec 2001 UTC via a TSIKLON-3 launch vehicle from the Plesetsk Missile And Space Complex (PKMTR). Payload-class satellites include a variety of spacecraft equipped with specific instruments for various scientific and technological missions. These include communications satellites like Starlink; space stations such as the ISS; scientific satellites like the Hubble; Earth observation satellites from companies like Planet Labs, Umbra, and HawkEye 360; GPS; miniature CubeSats for education and research; and military/defense satellites.

Loading next visibility...
Identifier
27057, 2001-058C
Orbit
LEO
Country
Flag of CISCIS
Related business
Manufacturer
NPO PM
Mission
Operational Defense Communications
Bus & Motor
STRELA-3, Unknown motor
Mass
225 kg wet, 225 kg dry
Launch date (UTC)
2001-12-28 (24 years ago)
Launch vehicle
TSIKLON-3
Launch site
Plesetsk Missile And Space Complex (PKMTR)
Object type
Payload
Rocket body
Debris
Shape & HBR
Cyl + 1 Arm, 3.5 m
Radar Cross Section
1.257 m², Medium (>0.1 m² and < 1m²)

Expand to show TLE details & history
Last TLE update: 11 hours ago

TLE from 11 hours ago
0 COSMOS 2386
1 27057U 01058C   25286.53731077  .00000028  00000-0  98496-4 0  9991
2 27057  82.5496  12.0803 0000828 114.8320 245.2857 12.61609391 95407
Epoch: 2025-10-13T12:53Z
TLE epoch observation values (Epoch: 2025-10-13T12:53:43.650Z)
Latitude
-0°
Longitude
156.30976°
Altitude
1,419.307 km
Speed
7.151 km/s
True Right ascension
00h 48m 19s
True Declination
0° 00' 00"
Sunlit
Object was in full shadow at epoch
Visualization orbit readout
Latitude
Unknown
Longitude
Unknown
Altitude
Unknown
Speed
Unknown
Apparent Right ascension
Unknown
Apparent Declination
Unknown
Sunlit
N/A
Visualization observer readout
Local Sidereal Time
18:29:20
Azimuth
Unknown
Elevation
Unknown
Doppler factor
Unknown
Orbital elements
Apogee altitude
1,414.277 km
Perigee altitude
1,412.986 km
Semi-major axis
7,791.768 km
Eccentricity
0.00008
Inclination
82.5496°
RAAN
12.0803°
Arg. of periapsis
114.832°
True anomaly
245.27708°
Mean anomaly
245.2857°
Eccentric anomaly
245.28139°
Mean motion
3.15565 °/min
Orbital period
114.08 mins
BSTAR
0.000098496
Loading maneuver chart data...
Computing Atmospheric mass density...
Loading historical data...
Loading historical data...
Loading historical data...
Loading historical data...
Loading historical data...
Loading historical data...
Loading historical data...

Documentation

Showing up to 5 results
|